******** Week 354 almanac for PRN-1 ******** ID: 1 Health: 0 Eccentricity: 0.001403331757 Time of Applicability(s): 405504 Orbital Inclination(rad): 0.9584467758 Rate of Right Ascen(r/s): -7.817468486e-09 SQRT(A) (m 1/2): 5153.586426 Right Ascen at Week(rad): -2.395906842 Argument of Perigee(rad): -0.008441762928 Mean Anom(rad): -0.8348203582 Af0(s): 0.0002698154053 Af1(s/s): -3.637979e-12 week: 354 ******** Week 354 almanac for PRN-2 ******** ID: 2 Health: 0 Eccentricity: 0.01697731018 Time of Applicability(s): 405504 Orbital Inclination(rad): 0.9639415429 Rate of Right Ascen(r/s): -7.737465153e-09 SQRT(A) (m 1/2): 5153.564941 Right Ascen at Week(rad): -2.558588201 Argument of Perigee(rad): -0.8437823114 Mean Anom(rad): 0.5582510373 Af0(s): 1.733450928e-05 Af1(s/s): 7.275958e-12 week: 354 ******** Week 354 almanac for PRN-3 ******** ID: 3 Health: 0 Eccentricity: 0.006364822388 Time of Applicability(s): 405504 Orbital Inclination(rad): 0.9925718562 Rate of Right Ascen(r/s): -7.840326581e-09 SQRT(A) (m 1/2): 5153.600586 Right Ascen at Week(rad): -1.409823469 Argument of Perigee(rad): 1.209090698 Mean Anom(rad): -3.063466369 Af0(s): 0.0004672780762 Af1(s/s): -1.091394e-11 week: 354 ******** Week 354 almanac for PRN-4 ******** ID: 4 Health: 0 Eccentricity: 0.0037317276 Time of Applicability(s): 405504 Orbital Inclination(rad): 0.9705088981 Rate of Right Ascen(r/s): -8.023191341e-09 SQRT(A) (m 1/2): 5153.696289 Right Ascen at Week(rad): -0.3385075403 Argument of Perigee(rad): -2.90609889 Mean Anom(rad): -0.01857030551 Af0(s): 3.165432129e-05 Af1(s/s): 3.637979e-12 week: 354 ******** Week 354 almanac for PRN-5 ******** ID: 5 Health: 0 Eccentricity: 0.00537443161 Time of Applicability(s): 405504 Orbital Inclination(rad): 0.9791495243 Rate of Right Ascen(r/s): -7.943188008e-09 SQRT(A) (m 1/2): 5153.633789 Right Ascen at Week(rad): -1.46908696 Argument of Perigee(rad): 1.424365203 Mean Anom(rad): 0.5977780071 Af0(s): -0.0001801281616 Af1(s/s): 0 week: 354 ******** Week 354 almanac for PRN-6 ******** ID: 6 Health: 0 Eccentricity: 0.003868579864 Time of Applicability(s): 405504 Orbital Inclination(rad): 0.987394671 Rate of Right Ascen(r/s): -7.520313251e-09 SQRT(A) (m 1/2): 5153.572266 Right Ascen at Week(rad): -2.446476151 Argument of Perigee(rad): -0.618231334 Mean Anom(rad): -1.688049609 Af0(s): -0.0004778295166 Af1(s/s): -3.637979e-12 week: 354 ******** Week 354 almanac for PRN-7 ******** ID: 7 Health: 0 Eccentricity: 0.02022218704 Time of Applicability(s): 405504 Orbital Inclination(rad): 0.9510225484 Rate of Right Ascen(r/s): -7.771752296e-09 SQRT(A) (m 1/2): 5153.591797 Right Ascen at Week(rad): 0.6700282776 Argument of Perigee(rad): -2.00358751 Mean Anom(rad): -2.594277972 Af0(s): -0.0001100364502 Af1(s/s): -3.637979e-12 week: 354 ******** Week 354 almanac for PRN-8 ******** ID: 8 Health: 0 Eccentricity: 0.0114440918 Time of Applicability(s): 405504 Orbital Inclination(rad): 0.9442095166 Rate of Right Ascen(r/s): -8.240343243e-09 SQRT(A) (m 1/2): 5153.609375 Right Ascen at Week(rad): 2.718513188 Argument of Perigee(rad): 0.5052886279 Mean Anom(rad): 0.2532495173 Af0(s): 0.0003964326904 Af1(s/s): -3.637979e-12 week: 354 ******** Week 354 almanac for PRN-9 ******** ID: 9 Health: 0 Eccentricity: 0.003354549408 Time of Applicability(s): 405504 Orbital Inclination(rad): 0.9646126595 Rate of Right Ascen(r/s): -8.126052768e-09 SQRT(A) (m 1/2): 5153.520996 Right Ascen at Week(rad): -0.402457237 Argument of Perigee(rad): 2.069953152 Mean Anom(rad): 0.8371314411 Af0(s): 0.0006089688477 Af1(s/s): 0 week: 354 ******** Week 354 almanac for PRN-10 ******** ID: 10 Health: 0 Eccentricity: 0.01096391678 Time of Applicability(s): 405504 Orbital Inclination(rad): 0.9921104635 Rate of Right Ascen(r/s): -7.817468486e-09 SQRT(A) (m 1/2): 5153.603027 Right Ascen at Week(rad): -1.412332292 Argument of Perigee(rad): -2.264473226 Mean Anom(rad): 2.248477282 Af0(s): -0.000462002356 Af1(s/s): -3.637979e-12 week: 354 ******** Week 354 almanac for PRN-11 ******** ID: 11 Health: 0 Eccentricity: 0.002239227295 Time of Applicability(s): 405504 Orbital Inclination(rad): 0.9642351564 Rate of Right Ascen(r/s): -7.771752296e-09 SQRT(A) (m 1/2): 5153.73584 Right Ascen at Week(rad): -2.426822023 Argument of Perigee(rad): -2.247651119 Mean Anom(rad): -0.7277982337 Af0(s): -0.0003677930664 Af1(s/s): 1.455192e-11 week: 354 ******** Week 354 almanac for PRN-12 ******** ID: 12 Health: 0 Eccentricity: 0.009078979492 Time of Applicability(s): 405504 Orbital Inclination(rad): 0.9588063025 Rate of Right Ascen(r/s): -8.034620388e-09 SQRT(A) (m 1/2): 5153.503906 Right Ascen at Week(rad): 1.787891311 Argument of Perigee(rad): 1.537828099 Mean Anom(rad): 3.072327954 Af0(s): -0.0004793368652 Af1(s/s): 0 week: 354 ******** Week 354 almanac for PRN-13 ******** ID: 13 Health: 0 Eccentricity: 0.009912014008 Time of Applicability(s): 405504 Orbital Inclination(rad): 0.9762313655 Rate of Right Ascen(r/s): -7.931758961e-09 SQRT(A) (m 1/2): 5153.623047 Right Ascen at Week(rad): -0.2279418303 Argument of Perigee(rad): 1.001684586 Mean Anom(rad): -0.01719886077 Af0(s): 0.0005441528564 Af1(s/s): 0 week: 354 ******** Week 354 almanac for PRN-14 ******** ID: 14 Health: 0 Eccentricity: 0.006538391113 Time of Applicability(s): 405504 Orbital Inclination(rad): 0.942154222 Rate of Right Ascen(r/s): -8.183198006e-09 SQRT(A) (m 1/2): 5153.587402 Right Ascen at Week(rad): 1.733860433 Argument of Perigee(rad): -2.762965675 Mean Anom(rad): 2.8761593 Af0(s): 0.0005773145264 Af1(s/s): 3.637979e-12 week: 354 ******** Week 354 almanac for PRN-15 ******** ID: 15 Health: 0 Eccentricity: 0.01659965515 Time of Applicability(s): 405504 Orbital Inclination(rad): 0.9423639459 Rate of Right Ascen(r/s): -8.411778956e-09 SQRT(A) (m 1/2): 5153.618652 Right Ascen at Week(rad): -0.5455166748 Argument of Perigee(rad): 1.495059397 Mean Anom(rad): -0.7534197576 Af0(s): 0.0002992087036 Af1(s/s): 3.637979e-12 week: 354 ******** Week 354 almanac for PRN-16 ******** ID: 16 Health: 0 Eccentricity: 0.01504564285 Time of Applicability(s): 405504 Orbital Inclination(rad): 0.9579674068 Rate of Right Ascen(r/s): -8.046049436e-09 SQRT(A) (m 1/2): 5153.570801 Right Ascen at Week(rad): 1.804940743 Argument of Perigee(rad): 0.9237324464 Mean Anom(rad): 1.255571889 Af0(s): 0.0001522422119 Af1(s/s): 7.275958e-12 week: 354 ******** Week 354 almanac for PRN-17 ******** ID: 17 Health: 0 Eccentricity: 0.01278877258 Time of Applicability(s): 405504 Orbital Inclination(rad): 0.9599867487 Rate of Right Ascen(r/s): -8.068907531e-09 SQRT(A) (m 1/2): 5153.512207 Right Ascen at Week(rad): 2.822569217 Argument of Perigee(rad): -1.13332905 Mean Anom(rad): 0.1483029107 Af0(s): -3.165432129e-05 Af1(s/s): -1.091394e-11 week: 354 ******** Week 354 almanac for PRN-18 ******** ID: 18 Health: 0 Eccentricity: 0.005702018738 Time of Applicability(s): 405504 Orbital Inclination(rad): 0.9723604609 Rate of Right Ascen(r/s): -7.657461821e-09 SQRT(A) (m 1/2): 5153.603516 Right Ascen at Week(rad): -2.450957128 Argument of Perigee(rad): -2.856329153 Mean Anom(rad): -1.835783644 Af0(s): -0.0003512122314 Af1(s/s): 1.091394e-11 week: 354 ******** Week 354 almanac for PRN-19 ******** ID: 19 Health: 0 Eccentricity: 0.01099491119 Time of Applicability(s): 405504 Orbital Inclination(rad): 0.9591957898 Rate of Right Ascen(r/s): -8.034620388e-09 SQRT(A) (m 1/2): 5153.652832 Right Ascen at Week(rad): 2.866469306 Argument of Perigee(rad): 2.917443083 Mean Anom(rad): 2.005445814 Af0(s): 0.0005426455078 Af1(s/s): 0 week: 354 ******** Week 354 almanac for PRN-21 ******** ID: 21 Health: 0 Eccentricity: 0.0005831718445 Time of Applicability(s): 405504 Orbital Inclination(rad): 0.9620060906 Rate of Right Ascen(r/s): -8.126052768e-09 SQRT(A) (m 1/2): 5153.689941 Right Ascen at Week(rad): -1.402394748 Argument of Perigee(rad): -0.456007997 Mean Anom(rad): 2.890292072 Af0(s): 0.0003044844238 Af1(s/s): 7.275958e-12 week: 354 ******** Week 354 almanac for PRN-22 ******** ID: 22 Health: 0 Eccentricity: 0.0122013092 Time of Applicability(s): 405504 Orbital Inclination(rad): 0.9574041482 Rate of Right Ascen(r/s): -8.057478483e-09 SQRT(A) (m 1/2): 5153.571289 Right Ascen at Week(rad): 1.808284716 Argument of Perigee(rad): -0.9972912444 Mean Anom(rad): 0.8010701593 Af0(s): -4.446678467e-05 Af1(s/s): 3.637979e-12 week: 354 ******** Week 354 almanac for PRN-23 ******** ID: 23 Health: 0 Eccentricity: 0.005997180939 Time of Applicability(s): 405504 Orbital Inclination(rad): 0.987125026 Rate of Right Ascen(r/s): -7.874613723e-09 SQRT(A) (m 1/2): 5153.651855 Right Ascen at Week(rad): -1.444250028 Argument of Perigee(rad): -2.746704579 Mean Anom(rad): -2.936741055 Af0(s): 0.000476322168 Af1(s/s): 3.637979e-12 week: 354 ******** Week 354 almanac for PRN-24 ******** ID: 24 Health: 0 Eccentricity: 0.01783227921 Time of Applicability(s): 405504 Orbital Inclination(rad): 0.9350775372 Rate of Right Ascen(r/s): -7.977475151e-09 SQRT(A) (m 1/2): 5153.603516 Right Ascen at Week(rad): 0.5622511469 Argument of Perigee(rad): 1.13057118 Mean Anom(rad): -1.614086718 Af0(s): -0.0001205878906 Af1(s/s): 1.455192e-11 week: 354 ******** Week 354 almanac for PRN-25 ******** ID: 25 Health: 0 Eccentricity: 0.0129404068 Time of Applicability(s): 405504 Orbital Inclination(rad): 0.9471336675 Rate of Right Ascen(r/s): -8.137481816e-09 SQRT(A) (m 1/2): 5153.682129 Right Ascen at Week(rad): 1.694467162 Argument of Perigee(rad): 1.152110203 Mean Anom(rad): 2.916286231 Af0(s): 0.0003542269287 Af1(s/s): -3.637979e-12 week: 354 ******** Week 354 almanac for PRN-26 ******** ID: 26 Health: 0 Eccentricity: 0.01096820831 Time of Applicability(s): 405504 Orbital Inclination(rad): 0.9279109707 Rate of Right Ascen(r/s): -8.274630386e-09 SQRT(A) (m 1/2): 5153.635254 Right Ascen at Week(rad): 1.620636472 Argument of Perigee(rad): 0.7033957303 Mean Anom(rad): 2.087781184 Af0(s): -0.0002494661987 Af1(s/s): -7.275958e-12 week: 354 ******** Week 354 almanac for PRN-27 ******** ID: 27 Health: 0 Eccentricity: 0.01420593262 Time of Applicability(s): 405504 Orbital Inclination(rad): 0.9533355038 Rate of Right Ascen(r/s): -8.126052768e-09 SQRT(A) (m 1/2): 5153.605957 Right Ascen at Week(rad): 2.750188244 Argument of Perigee(rad): 0.8686683035 Mean Anom(rad): 0.3449531808 Af0(s): -1.884185791e-05 Af1(s/s): -7.275958e-12 week: 354 ******** Week 354 almanac for PRN-28 ******** ID: 28 Health: 0 Eccentricity: 0.0003976821899 Time of Applicability(s): 405504 Orbital Inclination(rad): 0.9619941063 Rate of Right Ascen(r/s): -7.703178011e-09 SQRT(A) (m 1/2): 5153.725586 Right Ascen at Week(rad): 0.6438491127 Argument of Perigee(rad): 0.3240088752 Mean Anom(rad): -2.552546654 Af0(s): -0.0004800905395 Af1(s/s): 7.275958e-12 week: 354 ******** Week 354 almanac for PRN-29 ******** ID: 29 Health: 0 Eccentricity: 0.003270149231 Time of Applicability(s): 405504 Orbital Inclination(rad): 0.9626292703 Rate of Right Ascen(r/s): -8.046049436e-09 SQRT(A) (m 1/2): 5153.725098 Right Ascen at Week(rad): 2.83916999 Argument of Perigee(rad): 2.748453902 Mean Anom(rad): 0.2211037065 Af0(s): -0.0003074991211 Af1(s/s): 7.275958e-12 week: 354 ******** Week 354 almanac for PRN-30 ******** ID: 30 Health: 0 Eccentricity: 0.007905483246 Time of Applicability(s): 405504 Orbital Inclination(rad): 0.9362759597 Rate of Right Ascen(r/s): -7.943188008e-09 SQRT(A) (m 1/2): 5153.730469 Right Ascen at Week(rad): 0.6615966263 Argument of Perigee(rad): -2.344862657 Mean Anom(rad): -2.708744173 Af0(s): 7.612110596e-05 Af1(s/s): 1.091394e-11 week: 354 ******** Week 354 almanac for PRN-31 ******** ID: 31 Health: 0 Eccentricity: 0.01085758209 Time of Applicability(s): 405504 Orbital Inclination(rad): 0.9547855951 Rate of Right Ascen(r/s): -7.760323248e-09 SQRT(A) (m 1/2): 5153.719238 Right Ascen at Week(rad): 0.6940757484 Argument of Perigee(rad): 0.9326224942 Mean Anom(rad): 2.617346107 Af0(s): -0.000135661377 Af1(s/s): 3.637979e-12 week: 354 ******** Week 354 almanac for PRN-32 ******** ID: 32 Health: 0 Eccentricity: 0.009214878082 Time of Applicability(s): 405504 Orbital Inclination(rad): 0.9676926053 Rate of Right Ascen(r/s): -8.057478483e-09 SQRT(A) (m 1/2): 5153.663574 Right Ascen at Week(rad): -0.38559356 Argument of Perigee(rad): -2.022916941 Mean Anom(rad): 0.9516732922 Af0(s): -0.0001198342163 Af1(s/s): 1.818989e-11 week: 354